Daten der privaten Wetterstation Blomberg/Lippe
Wetterdaten: aktuell Montag, 31.08.2026 08:30
Datum Zeit Außentemp. Rel.Feuchte Luftdruck Regen Wind Richtung Richtung Windböen
31.08.2026 08:30 15,7 °C 92 % 1010,9 hPa 0,0 l/m² 2,2 km/h (1 Bft) S 171 ° 11,0 km/h (2 Bft)
31.08.2026 08:15 15,4 °C 92 % 1010,8 hPa 0,0 l/m² 1,7 km/h (1 Bft) SO 140 ° 7,3 km/h (2 Bft)
31.08.2026 08:00 15,3 °C 93 % 1010,7 hPa 0,0 l/m² 2,2 km/h (1 Bft) S 178 ° 9,1 km/h (2 Bft)
31.08.2026 07:45 15,0 °C 93 % 1010,6 hPa 0,0 l/m² 1,6 km/h (1 Bft) S 169 ° 9,1 km/h (2 Bft)
31.08.2026 07:30 14,8 °C 92 % 1010,6 hPa 0,0 l/m² 3,1 km/h (1 Bft) S-SO 165 ° 11,0 km/h (2 Bft)
31.08.2026 07:15 14,5 °C 92 % 1010,6 hPa 0,0 l/m² 3,7 km/h (1 Bft) S 176 ° 11,0 km/h (2 Bft)
31.08.2026 07:00 14,2 °C 92 % 1010,5 hPa 0,0 l/m² 1,7 km/h (1 Bft) S-SW 192 ° 7,3 km/h (2 Bft)
31.08.2026 06:45 14,1 °C 92 % 1010,4 hPa 0,0 l/m² 0,6 km/h (0 Bft) SO 142 ° 5,5 km/h (2 Bft)
31.08.2026 06:30 14,1 °C 91 % 1010,2 hPa 0,0 l/m² 0,3 km/h (0 Bft) SO 142 ° 3,7 km/h (1 Bft)
31.08.2026 06:15 14,2 °C 91 % 1010,2 hPa 0,0 l/m² 0,3 km/h (0 Bft) SO 142 ° 1,8 km/h (1 Bft)
31.08.2026 06:00 14,6 °C 91 % 1010,2 hPa 0,0 l/m² 0,0 km/h (0 Bft) SO 142 ° 1,8 km/h (1 Bft)
31.08.2026 05:45 14,8 °C 92 % 1010,1 hPa 0,0 l/m² 0,2 km/h (0 Bft) SO 142 ° 3,7 km/h (1 Bft)
31.08.2026 05:30 14,9 °C 93 % 1010,2 hPa 0,0 l/m² 0,3 km/h (0 Bft) SO 142 ° 5,5 km/h (2 Bft)
31.08.2026 05:15 14,9 °C 93 % 1010,1 hPa 0,0 l/m² 1,1 km/h (1 Bft) SO 142 ° 5,5 km/h (2 Bft)
31.08.2026 05:00 14,8 °C 93 % 1010,2 hPa 0,0 l/m² 1,0 km/h (0 Bft) SO 142 ° 7,3 km/h (2 Bft)
31.08.2026 04:45 14,8 °C 93 % 1010,3 hPa 0,0 l/m² 0,9 km/h (0 Bft) O-SO 102 ° 7,3 km/h (2 Bft)
31.08.2026 04:30 14,8 °C 93 % 1010,3 hPa 0,0 l/m² 0,5 km/h (0 Bft) S-SW 194 ° 5,5 km/h (2 Bft)
31.08.2026 04:15 14,8 °C 93 % 1010,4 hPa 0,0 l/m² 0,6 km/h (0 Bft) S-SW 194 ° 3,7 km/h (1 Bft)
31.08.2026 04:00 14,7 °C 93 % 1010,8 hPa 0,0 l/m² 0,1 km/h (0 Bft) S-SW 194 ° 3,7 km/h (1 Bft)
31.08.2026 03:45 14,6 °C 93 % 1011,0 hPa 0,0 l/m² 0,2 km/h (0 Bft) S-SW 194 ° 3,7 km/h (1 Bft)
31.08.2026 03:30 14,5 °C 93 % 1011,1 hPa 0,0 l/m² 1,0 km/h (0 Bft) S-SW 194 ° 7,3 km/h (2 Bft)
31.08.2026 03:15 14,4 °C 92 % 1011,1 hPa 0,0 l/m² 0,0 km/h (0 Bft) SW 218 ° 0,0 km/h (0 Bft)
31.08.2026 03:00 14,3 °C 92 % 1011,1 hPa 0,0 l/m² 0,0 km/h (0 Bft) SW 218 ° 0,0 km/h (0 Bft)
31.08.2026 02:45 14,3 °C 92 % 1011,4 hPa 0,0 l/m² 0,0 km/h (0 Bft) SW 218 ° 0,0 km/h (0 Bft)
31.08.2026 02:30 14,3 °C 91 % 1011,4 hPa 0,0 l/m² 0,0 km/h (0 Bft) SW 218 ° 0,0 km/h (0 Bft)
31.08.2026 02:15 14,3 °C 91 % 1011,5 hPa 0,0 l/m² 0,0 km/h (0 Bft) SW 218 ° 0,0 km/h (0 Bft)
31.08.2026 02:00 14,2 °C 91 % 1011,4 hPa 0,0 l/m² 0,0 km/h (0 Bft) SW 218 ° 0,0 km/h (0 Bft)
31.08.2026 01:45 14,2 °C 91 % 1011,6 hPa 0,0 l/m² 0,0 km/h (0 Bft) SW 218 ° 0,0 km/h (0 Bft)
31.08.2026 01:30 14,3 °C 90 % 1011,7 hPa 0,0 l/m² 0,0 km/h (0 Bft) SW 218 ° 0,0 km/h (0 Bft)
31.08.2026 01:15 14,3 °C 90 % 1011,8 hPa 0,0 l/m² 0,0 km/h (0 Bft) SW 218 ° 0,0 km/h (0 Bft)
31.08.2026 01:00 14,4 °C 89 % 1011,9 hPa 0,0 l/m² 0,0 km/h (0 Bft) SW 218 ° 0,0 km/h (0 Bft)
31.08.2026 00:45 14,6 °C 89 % 1012,0 hPa 0,0 l/m² 0,0 km/h (0 Bft) SW 218 ° 0,0 km/h (0 Bft)
31.08.2026 00:30 14,8 °C 88 % 1012,2 hPa 0,0 l/m² 0,0 km/h (0 Bft) SW 218 ° 0,0 km/h (0 Bft)
31.08.2026 00:15 14,9 °C 88 % 1012,3 hPa 0,0 l/m² 0,0 km/h (0 Bft) SW 218 ° 0,0 km/h (0 Bft)
31.08.2026 00:00 15,2 °C 88 % 1012,4 hPa 0,0 l/m² 0,0 km/h (0 Bft) SW 218 ° 0,0 km/h (0 Bft)
30.08.2026 23:45 15,3 °C 87 % 1012,4 hPa 0,0 l/m² 0,0 km/h (0 Bft) SW 218 ° 0,0 km/h (0 Bft)
30.08.2026 23:30 15,5 °C 87 % 1012,4 hPa 0,0 l/m² 0,0 km/h (0 Bft) SW 218 ° 0,0 km/h (0 Bft)
30.08.2026 23:15 15,7 °C 86 % 1012,4 hPa 0,0 l/m² 0,0 km/h (0 Bft) SW 218 ° 0,0 km/h (0 Bft)
30.08.2026 23:00 16,0 °C 86 % 1012,4 hPa 0,0 l/m² 0,0 km/h (0 Bft) SW 218 ° 1,8 km/h (1 Bft)
30.08.2026 22:45 16,2 °C 85 % 1012,4 hPa 0,0 l/m² 0,3 km/h (0 Bft) SW 218 ° 3,7 km/h (1 Bft)
30.08.2026 22:30 16,5 °C 83 % 1012,4 hPa 0,0 l/m² 0,0 km/h (0 Bft) SW 218 ° 0,0 km/h (0 Bft)
30.08.2026 22:15 16,8 °C 83 % 1012,6 hPa 0,0 l/m² 0,0 km/h (0 Bft) SW 218 ° 0,0 km/h (0 Bft)
30.08.2026 22:00 17,2 °C 82 % 1012,6 hPa 0,0 l/m² 0,0 km/h (0 Bft) SW 218 ° 0,0 km/h (0 Bft)
30.08.2026 21:45 17,6 °C 81 % 1012,8 hPa 0,0 l/m² 0,0 km/h (0 Bft) SW 218 ° 0,0 km/h (0 Bft)
30.08.2026 21:30 17,9 °C 80 % 1012,8 hPa 0,0 l/m² 0,0 km/h (0 Bft) SW 218 ° 0,0 km/h (0 Bft)
30.08.2026 21:15 18,2 °C 78 % 1012,9 hPa 0,0 l/m² 0,0 km/h (0 Bft) SW 218 ° 0,0 km/h (0 Bft)
30.08.2026 21:00 18,6 °C 77 % 1012,8 hPa 0,0 l/m² 0,0 km/h (0 Bft) SW 218 ° 0,0 km/h (0 Bft)
30.08.2026 20:45 19,0 °C 75 % 1012,8 hPa 0,0 l/m² 0,0 km/h (0 Bft) SW 218 ° 0,0 km/h (0 Bft)
30.08.2026 20:30 19,4 °C 74 % 1012,6 hPa 0,0 l/m² 0,0 km/h (0 Bft) SW 218 ° 0,0 km/h (0 Bft)
_ Min-Zeit 06:30 18:30 09:00 - 20:00 - - 20:15
Minimum _ 14,1 °C 72 % 1009,8 hPa - 0,0 km/h (0 Bft) - - 0,0 km/h (0 Bft)
_ Max-Zeit 12:45 03:30 21:15 09:00 11:30 - - 13:00
Maximum _ 21,1 °C 93 % 1012,9 hPa 0,0 l/m² 5,9 km/h
NW (2 Bft)
- - 31,1 km/h
SW (5 Bft)
Durchschnitt _ 17,6 °C 83 % 1011,4 hPa #0,0 l/m² 2,3 km/h (1 Bft) SW - 10,0 km/h (2 Bft)
Wetterstation: Davis Vantage Pro2 Aktiv